Regional Weather Roundup
Issued by NWS

Home | Current Version | Previous Version | Graphics & Text | Print | Product List | Glossary On
Versions: 1 2 3 4 5 6 7 8 9 10 11 12 13 14 15 16 17 18 19 20 21 22 23 24 25 26 27 28 29 30 31 32 33 34 35 36 37 38 39 40 41 42 43 44 45 46 47 48 49 50
778
ASUS43 KMPX 292001
RWRMN
WEATHER ROUNDUP FOR MINNESOTA
NATIONAL WEATHER SERVICE TWIN CITIES/CHANHASSEN MN
300 PM CDT SAT APR 29 2017


NOTE: "FAIR" INDICATES FEW OR NO CLOUDS BELOW 12,000 FEET WITH NO
SIGNIFICANT WEATHER AND/OR OBSTRUCTIONS TO VISIBILITY. N/A MEANS
CURRENT SKY AND/OR WEATHER CONDITIONS ARE NOT AVAILABLE.

MNZ060>063-068>070-292100-
   Twin Cities Metro

CITY           SKY/WX    TMP DP  RH WIND       PRES   REMARKS
TWIN CITIES    CLOUDY    53  23  31 NE12      30.29R
ST PAUL        CLOUDY    53  24  32 NE12      30.31R
CRYSTAL        CLOUDY    53  22  29 NE15      30.30R
BLAINE         CLOUDY    55  25  30 NE12G17   30.30R
LAKEVILLE      PTSUNNY   50  28  43 NE10      30.29R
EDEN PRAIRIE   PTSUNNY   54  23  30 NE12G21   30.28R
SOUTH ST PAUL  PTSUNNY   53  24  32 E10G16    30.30R
LAKE ELMO      FAIR      54  28  37 NE13      30.30R
$$
MNZ001>005-007-008-013>017-022>024-027-028-292100-
   Northwest Minnesota

CITY           SKY/WX    TMP DP  RH WIND       PRES   REMARKS
BEMIDJI        SUNNY     54  20  25 E6        30.31R
HALLOCK        SUNNY     59  18  20 SE5       30.29S
ROSEAU         SUNNY     57  25  28 SW3       30.30S
WARROAD        SUNNY     48  25  40 E12       30.32S
THIEF RVR FALL SUNNY     55  14  19 VRB3      30.32R
CROOKSTON      SUNNY     55  19  24 CALM      30.32R
FOSSTON        SUNNY     57  21  24 CALM      30.32R
DETROIT LAKES  SUNNY     54  23  30 W5        30.32R
MOORHEAD       SUNNY     57  19  23 E8        30.33R
PARK RAPIDS    SUNNY     56  20  24 E7        30.31R
MAHNOMEN       FAIR      53  27  36 NE5       30.32R
$$
MNZ006-009>011-018-025>026-292100-
   North Central Minnesota

CITY           SKY/WX    TMP DP  RH WIND       PRES   REMARKS
BAUDETTE       SUNNY     56  14  19 E5        30.30F
FLAG ISLAND    SUNNY     46  18  31 SE8       30.31S
INTL FALLS     SUNNY     53  16  23 N9        30.31F
WASKISH        PTSUNNY   52  25  35 W8        30.31F
BIG FORK       SUNNY     57  18  21 CALM      30.31R
LONGVILLE      MOSUNNY   55  19  24 N5        30.31R
GRAND RAPIDS   SUNNY     53  16  23 NE7       30.34R
CRANE LAKE     SUNNY     52  10  19 NE3       30.34F
ORR            SUNNY     54   9  16 W7        30.29S
COOK           MOSUNNY   52  16  24 E5        30.32S
WALKER         FAIR      52  21  29 E7        30.31R
$$
MNZ012-019>021-037-292100-
   Northeast Minnesota

CITY           SKY/WX    TMP DP  RH WIND       PRES   REMARKS
DULUTH         CLOUDY    47  19  33 E12       30.34R
ELY            SUNNY     50   7  17 N5        30.32F
HIBBING        LGT RAIN  52  18  26 N9        30.31S
EVELETH        SUNNY     53   0  11 NE9       30.32S
DULUTH HARBOR  MOSUNNY   43  36  75 NE5       30.39R
TWO HARBORS    SUNNY     48  28  46 E10       30.35R
SILVER BAY     SUNNY     45  21  39 E9        30.36R
GRAND MARAIS     N/A     42  33  70 SW6       30.39S
G MARAIS ARPRT SUNNY     43  14  31 S6        30.35S
$$
MNZ029>031-032-039>041-046>048-054>057-064-292100-
   West Central Minnesota

CITY           SKY/WX    TMP DP  RH WIND       PRES   REMARKS
FERGUS FALLS   CLOUDY    54  25  32 CALM      30.32R
WHEATON        MOSUNNY   54  19  26 NE7       30.34R
MORRIS         CLOUDY    55  25  30 N8        30.31S
ALEXANDRIA     CLOUDY    53  23  31 VRB6      30.32R
ELBOW LAKE     FAIR      53  24  32 N5        30.33R
WADENA         PTSUNNY   55  25  30 NE8       30.32R HAZE
GLENWOOD       MOSUNNY   55  25  30 NE14      30.32R
APPLETON       CLOUDY    55  19  24 NE10G17   30.30F
BENSON         CLOUDY    57   9  14 E10G16    30.32S
ORTONVILLE     CLOUDY    54  21  28 NE9       30.31S
MADISON        PTSUNNY   55  25  30 NE14      30.31R
WILLMAR        FAIR      54  25  32 NE13      30.32R
$$
MNZ033>034-036-042>043-049>051-058-059-292100-
   Central Minnesota

CITY           SKY/WX    TMP DP  RH WIND       PRES   REMARKS
ST CLOUD       MOSUNNY   53  23  31 E10       30.31R
SAUK CENTRE    FAIR      52  26  35 E6        30.32R
PAYNESVILLE    CLOUDY    53  23  31 NE9       30.32R
AITKIN         SUNNY     55  16  21 E5        30.31R
PINE RIVER     MOSUNNY   55  25  30 E8        30.34R
BRAINERD       MOSUNNY   54  20  26 NE12      30.33R
STAPLES        CLOUDY    54  18  24 NE6       30.32R
LONG PRAIRIE   FAIR      52  27  37 N6        30.32R
LITTLE FALLS   PTSUNNY   52  23  32 E6        30.33R
LITCHFIELD     CLOUDY    54  25  32 NE14      30.31R
BUFFALO        CLOUDY    53  23  31 NE13G18   30.32R
MAPLE LAKE     CLOUDY    55  28  36 NE13      30.33R
HUTCHINSON     SUNNY     53  27  36 NE14G21   30.31R
$$
MNZ037-044-045-052-053-292100-
   East Central Minnesota

CITY           SKY/WX    TMP DP  RH WIND       PRES   REMARKS
PRINCETON      CLOUDY    55  23  28 N7        30.32R
MORA           MOSUNNY   54  19  26 NE10G16   30.32R
CAMBRIDGE      MOSUNNY   55  32  41 NE6       30.30R
RUSH CITY      CLOUDY    54  21  27 NE14      30.31R
MOOSE LAKE     PTSUNNY   52  19  28 E7        30.31R
HINCKLEY       FAIR      54  25  32 NE12G17   30.32R
CLOQUET        MOSUNNY   50  14  23 E12       30.33R
MCGREGOR       MOSUNNY   54  23  30 NE7       30.32R
$$
MNZ071>073-080-081-089-090-097-098-292100-
   Southwest Minnesota

CITY           SKY/WX    TMP DP  RH WIND       PRES   REMARKS
MONTEVIDEO     CLOUDY    55  23  28 E13       30.30F
GRANITE FALLS  CLOUDY    55  26  32 NE12G21   30.32S
CANBY          CLOUDY    55  22  27 NE14G21   30.31S
MARSHALL       CLOUDY    53  23  31 NE12G23   30.30R
REDWOOD FALLS  CLOUDY    54  22  28 E12       30.29R
OLIVIA         CLOUDY    54  27  35 E10G18    30.29S
PIPESTONE      CLOUDY    52  12  20 E16G26    30.26S
WINDOM         CLOUDY    52  19  28 NE20G25   30.26F
WORTHINGTON    CLOUDY    49  24  37 NE17G29   30.24F
JACKSON        CLOUDY    48  27  43 E16       30.26S
TRACY          CLOUDY    53  29  39 E14G23    30.28F
SLAYTON        CLOUDY    49  22  35 NE17G23   30.27S
$$
MNZ065>067-074>077-082>085-091>093-292100-
   South Central Minnesota

CITY           SKY/WX    TMP DP  RH WIND       PRES   REMARKS
MANKATO        CLOUDY    50  27  40 NE14      30.28R
NEW ULM        CLOUDY    52  21  30 E10       30.28S
ST JAMES       CLOUDY    52  27  37 NE12      30.28F
FAIRMONT       CLOUDY    50  26  39 NE16      30.26R
GLENCOE        PTSUNNY   53  29  39 NE7       30.29R
FARIBAULT      CLOUDY    52  28  40 NE10G16   30.28R
OWATONNA       CLOUDY    50  27  40 NE13      30.26F
WASECA         CLOUDY    50  28  43 NE12      30.28S
ALBERT LEA     CLOUDY    46  25  42 NE18      30.24F
$$
MNZ078>079-086>088-094>096-292100-
   Southeast Minnesota

CITY           SKY/WX    TMP DP  RH WIND       PRES   REMARKS
ROCHESTER      CLOUDY    46  29  51 E15       30.27R
RED WING       PTSUNNY   54  25  32 E7        30.28R
STANTON        CLOUDY    53  28  38 NE10G18   30.27R
DODGE CENTER   CLOUDY    48  27  43 E14G20    30.26R
WINONA         CLOUDY    50  30  46 E8        30.28R
AUSTIN         CLOUDY    46  28  49 NE16G22   30.23F
PRESTON        CLOUDY    45  27  50 NE8       30.25S
$$
ABBREVIATIONS USED IN REMARKS
   TC - TEMPERATURES IN CELSIUS
  WCI - WIND CHILL INDEX
   HX - HEAT INDEX
  VSB - VISIBILITY
$$




USA.gov is the U.S. government's official web portal to all federal, state and local government web resources and services.